Location: Breux
(46.3269°N, 3.2993°E)
Time: 19:45:04
(UTC+00:00)

ADEOS Rocket - Pass Details

Date: 09 April 2020
Orbit: 858 x 1307 km, 98.7° (Epoch: 25 May)

Event Time Altitude Azimuth Distance (km) Brightness Sun altitude
Rises 19:00:40 0° 10° (N) 3,866 6.2 -6.5°
Reaches altitude 10° 19:03:22 10° 6° (N) 2,841 5.6 -6.9°
Maximum altitude 19:09:27 51° 293° (WNW) 1,186 4.0 -7.9°
Drops below altitude 10° 19:14:59 10° 218° (SW) 2,579 5.5 -8.8°
Sets 19:17:20 0° 214° (SSW) 3,480 6.1 -9.1°
